Location: Hertford
(51.8000°N, 0.0667°W)
Time: 12:39:12
(UTC+00:00)

CZ-2C R/B - Pass Details

Date: 18 September 2020
Orbit: 785 x 870 km, 98.2° (Epoch: 23 October)

Event Time Altitude Azimuth Distance (km) Brightness Sun altitude
Rises 19:15:41 0° 18° (NNE) 3,408 5.8 -11.3°
Reaches altitude 10° 19:18:10 10° 25° (NNE) 2,481 5.1 -11.6°
Maximum altitude 19:23:26 44° 97° (E) 1,176 3.0 -12.4°
Drops below altitude 10° 19:28:44 10° 169° (S) 2,503 4.9 -13.2°
Sets 19:31:14 0° 176° (S) 3,441 5.6 -13.5°
